TimeEST,TemperatureF,Dew PointF,Humidity,Sea Level PressureIn,VisibilityMPH,Wind Direction,Wind SpeedMPH,Gust SpeedMPH,PrecipitationIn,Events,Conditions,WindDirDegrees,DateUTC
12:54 AM,8.1,1.9,76,30.49,10.0,Calm,Calm,-,N/A,,Clear,0,2014-01-04 05:54:00
1:54 AM,8.1,3.0,80,30.51,10.0,Calm,Calm,-,N/A,,Clear,0,2014-01-04 06:54:00
2:54 AM,8.1,3.9,83,30.50,10.0,Calm,Calm,-,N/A,,Clear,0,2014-01-04 07:54:00
3:54 AM,7.0,3.0,84,30.50,10.0,Calm,Calm,-,N/A,,Clear,0,2014-01-04 08:54:00
4:54 AM,7.0,3.0,84,30.49,10.0,Calm,Calm,-,N/A,,Clear,0,2014-01-04 09:54:00
5:54 AM,7.0,3.9,87,30.51,9.0,Calm,Calm,-,N/A,,Clear,0,2014-01-04 10:54:00
6:54 AM,7.0,3.9,87,30.53,8.0,Calm,Calm,-,N/A,,Partly Cloudy,0,2014-01-04 11:54:00
7:54 AM,8.1,3.9,83,30.54,10.0,Calm,Calm,-,N/A,,Partly Cloudy,0,2014-01-04 12:54:00
8:54 AM,16.0,5.0,62,30.53,10.0,SSW,4.6,-,N/A,,Clear,210,2014-01-04 13:54:00
9:54 AM,19.9,8.1,60,30.52,10.0,SSW,5.8,-,N/A,,Clear,200,2014-01-04 14:54:00
10:54 AM,23.0,10.0,58,30.49,10.0,SSW,11.5,19.6,N/A,,Clear,200,2014-01-04 15:54:00
11:54 AM,27.0,10.9,51,30.45,10.0,Variable,5.8,-,N/A,,Partly Cloudy,0,2014-01-04 16:54:00
12:54 PM,28.9,10.0,45,30.41,10.0,SW,8.1,-,N/A,,Partly Cloudy,220,2014-01-04 17:54:00
1:54 PM,30.0,10.0,43,30.39,10.0,SSW,10.4,-,N/A,,Scattered Clouds,210,2014-01-04 18:54:00
2:54 PM,30.9,9.0,40,30.36,10.0,SSW,4.6,-,N/A,,Scattered Clouds,200,2014-01-04 19:54:00
3:54 PM,32.0,10.0,40,30.37,10.0,SSW,8.1,-,N/A,,Scattered Clouds,210,2014-01-04 20:54:00
4:54 PM,30.0,12.0,47,30.34,10.0,South,5.8,-,N/A,,Scattered Clouds,190,2014-01-04 21:54:00
5:54 PM,28.9,12.0,49,30.34,10.0,Calm,Calm,-,N/A,,Partly Cloudy,0,2014-01-04 22:54:00
6:54 PM,25.0,12.0,58,30.33,10.0,Calm,Calm,-,N/A,,Partly Cloudy,0,2014-01-04 23:54:00
7:54 PM,21.0,12.0,68,30.33,10.0,Calm,Calm,-,N/A,,Scattered Clouds,0,2014-01-05 00:54:00
8:54 PM,19.9,12.9,74,30.32,10.0,Calm,Calm,-,N/A,,Partly Cloudy,0,2014-01-05 01:54:00
9:54 PM,18.0,12.0,78,30.32,10.0,Calm,Calm,-,N/A,,Partly Cloudy,0,2014-01-05 02:54:00
10:54 PM,18.0,12.0,78,30.29,10.0,Calm,Calm,-,N/A,,Clear,0,2014-01-05 03:54:00
11:54 PM,18.0,12.9,81,30.27,10.0,Calm,Calm,-,N/A,,Scattered Clouds,0,2014-01-05 04:54:00